Time,TemperatureF,DewpointF,PressureIn,WindDirection,WindDirectionDegrees,WindSpeedMPH,WindSpeedGustMPH,Humidity,HourlyPrecipIn,Conditions,Clouds,dailyrainin,SoftwareType,DateUTC
2013-04-10 00:02:00,7.5,4.2,29.51,West,262,7.0,15.0,86,0.00,CLR,,0.00,WeatherDisplay:10.37,2013-04-10 08:02:00,
2013-04-10 00:17:00,7.3,4.0,29.53,West,261,9.0,14.0,86,0.00,CLR,,0.00,WeatherDisplay:10.37,2013-04-10 08:17:00,
2013-04-10 00:32:00,7.1,3.5,29.54,WSW,254,7.0,15.0,85,0.00,CLR,,0.00,WeatherDisplay:10.37,2013-04-10 08:32:00,
2013-04-10 00:47:00,7.0,3.4,29.55,WSW,255,9.0,15.0,85,0.00,CLR,,0.00,WeatherDisplay:10.37,2013-04-10 08:47:00,
2013-04-10 01:02:00,6.7,3.2,29.56,WSW,254,8.0,16.0,85,0.00,CLR,,0.00,WeatherDisplay:10.37,2013-04-10 09:02:00,
2013-04-10 01:17:00,6.5,3.0,29.57,WSW,250,10.0,17.0,85,0.00,CLR,,0.00,WeatherDisplay:10.37,2013-04-10 09:17:00,
2013-04-10 01:32:00,6.4,2.9,29.58,WSW,249,8.0,14.0,85,0.00,CLR,,0.00,WeatherDisplay:10.37,2013-04-10 09:32:00,
2013-04-10 01:47:00,6.3,3.1,29.59,West,264,9.0,15.0,86,0.00,CLR,,0.00,WeatherDisplay:10.37,2013-04-10 09:47:00,
2013-04-10 02:02:00,6.2,3.0,29.61,WSW,248,5.0,14.0,86,0.00,CLR,,0.00,WeatherDisplay:10.37,2013-04-10 10:02:00,
2013-04-10 02:17:00,6.1,2.8,29.62,WSW,250,5.0,12.0,86,0.00,CLR,,0.00,WeatherDisplay:10.37,2013-04-10 10:17:00,
2013-04-10 02:32:00,5.9,2.6,29.63,WSW,246,6.0,9.0,86,0.00,CLR,,0.00,WeatherDisplay:10.37,2013-04-10 10:32:00,
2013-04-10 02:47:00,5.7,2.4,29.63,WSW,251,6.0,13.0,86,0.00,CLR,,0.00,WeatherDisplay:10.37,2013-04-10 10:47:00,
2013-04-10 03:02:00,5.5,2.2,29.65,WSW,243,6.0,12.0,86,0.00,CLR,,0.00,WeatherDisplay:10.37,2013-04-10 11:02:00,
2013-04-10 03:17:00,5.4,2.1,29.65,WSW,237,7.0,13.0,86,0.00,CLR,,0.00,WeatherDisplay:10.37,2013-04-10 11:17:00,
2013-04-10 03:32:00,5.1,1.9,29.66,SW,236,3.0,12.0,86,0.00,CLR,,0.00,WeatherDisplay:10.37,2013-04-10 11:32:00,
2013-04-10 03:47:00,4.7,1.4,29.67,West,265,1.0,8.0,86,0.00,CLR,,0.00,WeatherDisplay:10.37,2013-04-10 11:47:00,
2013-04-10 04:02:00,4.5,1.2,29.67,WNW,282,2.0,10.0,86,0.00,CLR,,0.00,WeatherDisplay:10.37,2013-04-10 12:02:00,
2013-04-10 04:17:00,4.3,1.1,29.67,WSW,243,1.0,10.0,86,0.00,CLR,,0.00,WeatherDisplay:10.37,2013-04-10 12:17:00,
2013-04-10 04:32:00,4.2,1.0,29.68,SSW,209,1.0,10.0,86,0.00,CLR,,0.00,WeatherDisplay:10.37,2013-04-10 12:32:00,
2013-04-10 04:47:00,4.1,0.8,29.69,SSW,193,3.0,9.0,86,0.00,CLR,,0.00,WeatherDisplay:10.37,2013-04-10 12:47:00,
2013-04-10 05:02:00,3.9,0.6,29.69,SSW,210,3.0,9.0,86,0.00,CLR,,0.00,WeatherDisplay:10.37,2013-04-10 13:02:00,
2013-04-10 05:17:00,3.8,0.5,29.69,SSW,206,1.0,10.0,86,0.00,CLR,,0.00,WeatherDisplay:10.37,2013-04-10 13:17:00,
2013-04-10 05:32:00,3.7,0.4,29.70,SW,233,6.0,10.0,86,0.00,CLR,,0.00,WeatherDisplay:10.37,2013-04-10 13:32:00,
2013-04-10 05:47:00,3.6,0.3,29.71,WSW,241,0.0,10.0,86,0.00,CLR,,0.00,WeatherDisplay:10.37,2013-04-10 13:47:00,
2013-04-10 06:02:00,3.5,0.2,29.72,South,176,0.0,10.0,86,0.00,CLR,,0.00,WeatherDisplay:10.37,2013-04-10 14:02:00,
2013-04-10 06:17:00,3.2,0.0,29.73,North,359,1.0,9.0,86,0.00,CLR,,0.00,WeatherDisplay:10.37,2013-04-10 14:17:00,
2013-04-10 06:32:00,3.0,-0.3,29.74,South,187,2.0,8.0,86,0.00,CLR,,0.00,WeatherDisplay:10.37,2013-04-10 14:32:00,
2013-04-10 06:47:00,2.6,-0.6,29.74,SSW,204,2.0,7.0,86,0.00,CLR,,0.00,WeatherDisplay:10.37,2013-04-10 14:47:00,
2013-04-10 07:02:00,2.3,-0.9,29.75,SSW,199,3.0,8.0,86,0.00,CLR,,0.00,WeatherDisplay:10.37,2013-04-10 15:02:00,
2013-04-10 07:17:00,2.1,-1.1,29.75,SW,214,1.0,9.0,86,0.00,CLR,,0.00,WeatherDisplay:10.37,2013-04-10 15:17:00,
2013-04-10 07:32:00,2.0,-1.2,29.76,SSW,200,5.0,9.0,86,0.00,CLR,,0.00,WeatherDisplay:10.37,2013-04-10 15:32:00,
2013-04-10 07:47:00,2.1,-1.1,29.77,SW,218,2.0,10.0,86,0.00,CLR,,0.00,WeatherDisplay:10.37,2013-04-10 15:47:00,
2013-04-10 08:02:00,2.2,-1.3,29.78,SSW,198,1.0,8.0,85,0.00,CLR,,0.00,WeatherDisplay:10.37,2013-04-10 16:02:00,
2013-04-10 08:17:00,2.1,-1.3,29.78,South,170,0.0,7.0,85,0.00,CLR,,0.00,WeatherDisplay:10.37,2013-04-10 16:17:00,
2013-04-10 08:32:00,2.2,-1.3,29.79,SSE,168,3.0,9.0,85,0.00,CLR,,0.00,WeatherDisplay:10.37,2013-04-10 16:32:00,
2013-04-10 08:47:00,2.4,-1.1,29.79,SSW,206,5.0,9.0,85,0.00,CLR,,0.00,WeatherDisplay:10.37,2013-04-10 16:47:00,
2013-04-10 09:02:00,2.4,-1.0,29.80,South,175,0.0,8.0,85,0.00,CLR,,0.00,WeatherDisplay:10.37,2013-04-10 17:02:00,
2013-04-10 09:17:00,2.9,-0.3,29.81,SSW,195,5.0,8.0,86,0.00,CLR,,0.00,WeatherDisplay:10.37,2013-04-10 17:17:00,
2013-04-10 09:32:00,3.2,-0.1,29.81,SSW,206,5.0,7.0,86,0.00,CLR,,0.00,WeatherDisplay:10.37,2013-04-10 17:32:00,
2013-04-10 09:47:00,3.3,-0.4,29.81,SSW,210,5.0,8.0,84,0.00,CLR,,0.00,WeatherDisplay:10.37,2013-04-10 17:47:00,
2013-04-10 10:02:00,3.9,0.4,29.82,SSE,158,2.0,9.0,85,0.00,CLR,,0.00,WeatherDisplay:10.37,2013-04-10 18:02:00,
2013-04-10 10:17:00,4.6,1.1,29.82,South,179,3.0,10.0,85,0.00,CLR,,0.00,WeatherDisplay:10.37,2013-04-10 18:17:00,
2013-04-10 10:32:00,4.8,1.0,29.83,South,171,1.0,9.0,84,0.00,CLR,,0.00,WeatherDisplay:10.37,2013-04-10 18:32:00,
2013-04-10 10:47:00,5.4,1.7,29.83,South,176,1.0,10.0,84,0.00,CLR,,0.00,WeatherDisplay:10.37,2013-04-10 18:47:00,
2013-04-10 11:02:00,6.1,2.3,29.83,SSE,160,5.0,11.0,84,0.00,CLR,,0.00,WeatherDisplay:10.37,2013-04-10 19:02:00,
2013-04-10 11:17:00,6.8,2.7,29.84,South,191,6.0,12.0,83,0.00,CLR,,0.00,WeatherDisplay:10.37,2013-04-10 19:17:00,
2013-04-10 11:32:00,7.0,3.2,29.84,South,170,1.0,13.0,84,0.00,CLR,,0.00,WeatherDisplay:10.37,2013-04-10 19:32:00,
2013-04-10 11:47:00,7.3,2.9,29.84,SSW,193,8.0,13.0,82,0.00,CLR,,0.00,WeatherDisplay:10.37,2013-04-10 19:47:00,
2013-04-10 12:02:00,7.1,2.2,29.85,SW,217,5.0,12.0,80,0.00,CLR,,0.00,WeatherDisplay:10.37,2013-04-10 20:02:00,
2013-04-10 12:17:00,7.9,3.5,29.85,South,178,3.0,13.0,82,0.00,CLR,,0.00,WeatherDisplay:10.37,2013-04-10 20:17:00,
2013-04-10 12:32:00,8.2,4.1,29.85,South,178,6.0,11.0,83,0.00,CLR,,0.00,WeatherDisplay:10.37,2013-04-10 20:32:00,
2013-04-10 12:47:00,8.3,4.0,29.85,WSW,245,1.0,11.0,82,0.00,CLR,,0.00,WeatherDisplay:10.37,2013-04-10 20:47:00,
2013-04-10 13:02:00,8.0,3.9,29.85,WSW,238,7.0,13.0,83,0.00,CLR,,0.00,WeatherDisplay:10.37,2013-04-10 21:02:00,
2013-04-10 13:17:00,8.0,3.9,29.86,WSW,251,0.0,9.0,83,0.00,CLR,,0.00,WeatherDisplay:10.37,2013-04-10 21:17:00,
2013-04-10 13:32:00,8.5,4.4,29.86,SW,229,7.0,12.0,83,0.00,CLR,,0.00,WeatherDisplay:10.37,2013-04-10 21:32:00,
2013-04-10 13:47:00,9.4,5.0,29.86,SSW,195,1.0,13.0,82,0.00,CLR,,0.00,WeatherDisplay:10.37,2013-04-10 21:47:00,
2013-04-10 14:02:00,9.5,3.7,29.86,SW,229,9.0,13.0,77,0.00,CLR,,0.00,WeatherDisplay:10.37,2013-04-10 22:02:00,
2013-04-10 14:17:00,9.4,2.8,29.86,WSW,237,6.0,15.0,74,0.00,CLR,,0.00,WeatherDisplay:10.37,2013-04-10 22:17:00,
2013-04-10 14:32:00,10.3,3.7,29.87,SW,224,7.0,14.0,74,0.00,CLR,,0.00,WeatherDisplay:10.37,2013-04-10 22:32:00,
2013-04-10 14:47:00,10.4,2.3,29.87,SW,218,7.0,15.0,69,0.00,CLR,,0.00,WeatherDisplay:10.37,2013-04-10 22:47:00,
2013-04-10 15:02:00,10.5,1.7,29.87,SW,233,9.0,18.0,67,0.00,CLR,,0.00,WeatherDisplay:10.37,2013-04-10 23:02:00,
2013-04-10 15:17:00,10.4,1.3,29.87,SW,225,8.0,17.0,66,0.00,CLR,,0.00,WeatherDisplay:10.37,2013-04-10 23:17:00,
2013-04-10 15:32:00,11.3,1.8,29.87,SW,233,6.0,14.0,65,0.00,CLR,,0.00,WeatherDisplay:10.37,2013-04-10 23:32:00,
2013-04-10 15:47:00,12.0,3.5,29.87,SW,227,7.0,12.0,68,0.00,CLR,,0.00,WeatherDisplay:10.37,2013-04-10 23:47:00,
2013-04-10 16:02:00,12.5,4.0,29.87,SSW,210,6.0,12.0,68,0.00,CLR,,0.00,WeatherDisplay:10.37,2013-04-11 00:02:00,
2013-04-10 16:17:00,12.9,4.3,29.87,SW,215,7.0,12.0,68,0.00,CLR,,0.00,WeatherDisplay:10.37,2013-04-11 00:17:00,
2013-04-10 16:32:00,13.7,4.8,29.87,SW,220,6.0,13.0,67,0.00,CLR,,0.00,WeatherDisplay:10.37,2013-04-11 00:32:00,
2013-04-10 16:47:00,13.8,2.8,29.87,SW,232,5.0,12.0,61,0.00,CLR,,0.00,WeatherDisplay:10.37,2013-04-11 00:47:00,
2013-04-10 17:02:00,14.0,2.3,29.87,SSW,210,6.0,12.0,59,0.00,CLR,,0.00,WeatherDisplay:10.37,2013-04-11 01:02:00,
2013-04-10 17:32:00,14.0,2.2,29.87,SSW,213,7.0,13.0,59,0.00,CLR,,0.00,WeatherDisplay:10.37,2013-04-11 01:32:00,
2013-04-10 17:47:00,13.9,2.5,29.86,SSW,207,2.0,14.0,60,0.00,CLR,,0.00,WeatherDisplay:10.37,2013-04-11 01:47:00,
2013-04-10 18:02:00,14.4,2.6,29.82,SSW,198,8.0,13.0,59,0.00,CLR,,0.00,WeatherDisplay:10.37,2013-04-11 02:02:00,
2013-04-10 18:17:00,13.8,2.4,29.82,SSW,202,6.0,12.0,60,0.00,CLR,,0.00,WeatherDisplay:10.37,2013-04-11 02:17:00,
2013-04-10 18:32:00,13.8,2.5,29.84,SW,221,3.0,12.0,60,0.00,CLR,,0.00,WeatherDisplay:10.37,2013-04-11 02:32:00,
2013-04-10 18:47:00,13.5,1.4,29.85,SW,227,6.0,12.0,58,0.00,CLR,,0.00,WeatherDisplay:10.37,2013-04-11 02:47:00,
2013-04-10 19:02:00,14.4,2.3,29.85,SSW,211,1.0,10.0,58,0.00,CLR,,0.00,WeatherDisplay:10.37,2013-04-11 03:02:00,
2013-04-10 19:17:00,13.4,1.4,29.85,WSW,239,3.0,12.0,58,0.00,CLR,,0.00,WeatherDisplay:10.37,2013-04-11 03:17:00,
2013-04-10 19:32:00,13.1,0.7,29.86,SW,232,6.0,11.0,57,0.00,CLR,,0.00,WeatherDisplay:10.37,2013-04-11 03:32:00,
2013-04-10 19:47:00,13.0,1.3,29.86,West,264,5.0,11.0,59,0.00,CLR,,0.00,WeatherDisplay:10.37,2013-04-11 03:47:00,
2013-04-10 20:02:00,12.4,0.7,29.86,West,260,6.0,9.0,59,0.00,CLR,,0.00,WeatherDisplay:10.37,2013-04-11 04:02:00,
2013-04-10 20:17:00,11.5,0.7,29.87,WSW,258,5.0,8.0,61,0.00,CLR,,0.00,WeatherDisplay:10.37,2013-04-11 04:17:00,
2013-04-10 20:32:00,10.9,0.5,29.87,West,261,5.0,9.0,62,0.00,CLR,,0.00,WeatherDisplay:10.37,2013-04-11 04:32:00,
2013-04-10 20:47:00,10.3,-0.1,29.88,West,261,6.0,8.0,62,0.00,CLR,,0.00,WeatherDisplay:10.37,2013-04-11 04:47:00,
2013-04-10 21:02:00,9.7,-0.3,29.89,West,259,6.0,10.0,63,0.00,CLR,,0.00,WeatherDisplay:10.37,2013-04-11 05:02:00,
2013-04-10 21:17:00,9.1,-0.9,29.90,West,261,5.0,8.0,63,0.00,CLR,,0.00,WeatherDisplay:10.37,2013-04-11 05:17:00,
2013-04-10 21:32:00,8.5,-1.2,29.91,West,262,5.0,8.0,64,0.00,CLR,,0.00,WeatherDisplay:10.37,2013-04-11 05:32:00,
2013-04-10 21:47:00,8.3,-1.4,29.92,West,261,5.0,7.0,64,0.00,CLR,,0.00,WeatherDisplay:10.37,2013-04-11 05:47:00,
2013-04-10 22:02:00,8.0,-1.7,29.93,WSW,255,3.0,7.0,64,0.00,CLR,,0.00,WeatherDisplay:10.37,2013-04-11 06:02:00,
2013-04-10 22:17:00,7.7,-2.0,29.93,WSW,248,2.0,6.0,64,0.00,CLR,,0.00,WeatherDisplay:10.37,2013-04-11 06:17:00,
2013-04-10 22:32:00,7.4,-1.9,29.94,SW,228,3.0,9.0,65,0.00,CLR,,0.00,WeatherDisplay:10.37,2013-04-11 06:32:00,
2013-04-10 22:47:00,7.4,-1.9,29.95,WSW,243,5.0,10.0,65,0.00,CLR,,0.00,WeatherDisplay:10.37,2013-04-11 06:47:00,
2013-04-10 23:02:00,7.1,-2.2,29.96,WSW,254,5.0,10.0,65,0.00,CLR,,0.00,WeatherDisplay:10.37,2013-04-11 07:02:00,
2013-04-10 23:17:00,6.7,-2.6,29.96,WSW,253,5.0,8.0,65,0.00,CLR,,0.00,WeatherDisplay:10.37,2013-04-11 07:17:00,
2013-04-10 23:32:00,6.2,-2.7,29.97,WSW,238,3.0,7.0,66,0.00,CLR,,0.00,WeatherDisplay:10.37,2013-04-11 07:32:00,
2013-04-10 23:47:00,5.8,-3.2,29.98,WSW,248,0.0,7.0,66,0.00,CLR,,0.00,WeatherDisplay:10.37,2013-04-11 07:47:00,